sat.trackr.live / text

‹ back to catalog

HULIANWANG DIGUI-158

NORAD 68132 · 2026-047D

PAYLOAD ACTIVE UNKNOWN

§ Identity

Operator
Country
PRC
Launch date
2026-03-12
Launch site
WSC
Launch vehicle
Mass (kg)
RCS (m²)

External: N2YO · Heavens-Above · Gunter

§ Orbital elements

Epoch: 2026-09-20T03:44:14.365248Z

Period
108.33 min
Inclination
50.0040°
Eccentricity
0.0001233
Mean motion
13.29328300 rev/d
Perigee alt
1,148.4 km
Apogee alt
1,150.2 km
Semi-major
7,527.4 km
B*
3.5835e-5
RAAN
75.5791°
Arg perigee
85.5583°
Mean anomaly
274.5430°
Rev number
2,569

§ Raw data

HULIANWANG DIGUI-1581 68132U 26047D   26263.15572182 -.00000107  00000+0  35835-4 0  99952 68132  50.0040  75.5791 0001233  85.5583 274.5430 13.29328300 25696

JSON: /api/v1/satellites/68132 · /tle

For live sub-satellite position, see the globe view (requires WebGL).

§ Visibility from observer

Set your observer location to see the next 7 days of passes ≥ 10°. The values pass through the URL so the page stays shareable.

No JS? Fill the form by hand. The geolocation button needs JavaScript.